Beaumont, TX

6:27 PM CST on January 23, 2018 (GMT -0600)
Southeast Texas Regional

Weather History for KBPT - April, 2014

Change the Weather History Date:

Wednesday, April 23, 2014

  Actual Average Record
Temperature  
Mean Temperature 73 °F 70 °F  
Max Temperature 82 °F 80 °F 91 °F (1919)
Min Temperature 63 °F 61 °F 45 °F (1927)
Degree Days  
Heating Degree Days 0 1  
Month to date heating degree days 37 38  
Since 1 July heating degree days 1710 1399  
Cooling Degree Days 8 6  
Month to date cooling degree days 87 99  
Year to date cooling degree days 134 180  
Growing Degree Days 22 (Base 50)    
Moisture  
Dew Point 66 °F    
Average Humidity 81    
Maximum Humidity 100    
Minimum Humidity 62    
Precipitation  
Precipitation 0.00 in 0.11 in 2.35 in (1952)
Month to date precipitation 1.98 2.34  
Year to date precipitation 10.99 14.71  
Snow  
Snow 0.00 in 0.00 in 0.00 in ()
Month to date snowfall 0.0 0.0  
Since 1 July snowfall 0.3 T  
Snow Depth 0.00 in    
Sea Level Pressure  
Sea Level Pressure 29.94 in    
Wind  
Wind Speed 6 mph (SSE)    
Max Wind Speed 16 mph    
Max Gust Speed 20 mph    
Visibility 4 miles    
Events Fog    
T = Trace of Precipitation, MM = Missing Value Source: NWS Daily Summary

Daily Weather History Graph

Daily Weather History Graph

Search for Another Location

Airport or City:

Trip Planner

Search our weather history database for the weather conditions in past years. The results will help you decide how hot, cold, wet, or windy it might be!

Date:

Astronomy

Apr. 23, 2014 Rise Set
Actual Time 6:40 AM CDT 7:48 PM CDT
Civil Twilight 6:15 AM CDT 8:13 PM CDT
Nautical Twilight 5:46 AM CDT 8:42 PM CDT
Astronomical Twilight 5:16 AM CDT 9:13 PM CDT
Moon 2:46 AM CDT (4/23) 2:22 PM CDT (4/23)
Length of Visible Light 13h 57m
Length of Day
13h 07m
Waning Crescent, 34% of the Moon is Illuminated
Apr 23
Waning Crescent
Apr 29
New
May 6
First Quarter
May 14
Full
May 21
Last Quarter

Hourly Weather History & Observations

Time (CDT) Temp. Heat Index Dew Point Humidity Pressure Visibility Wind Dir Wind Speed Gust Speed Precip Events Conditions
12:03 AM 64.4 °F - 62.6 °F 94% 29.94 in 0.2 mi Calm Calm - N/A Fog Fog
12:17 AM 64.9 °F - 63.0 °F 93% 29.94 in 0.2 mi WSW 3.5 mph - N/A Fog Fog
12:41 AM 66.0 °F - 64.9 °F 96% 29.95 in 0.5 mi West 4.6 mph - N/A Fog Fog
12:53 AM 66.0 °F - 64.9 °F 96% 29.95 in 0.5 mi WSW 4.6 mph - N/A Fog Fog
1:02 AM 66.0 °F - 64.9 °F 96% 29.94 in 0.2 mi WSW 4.6 mph - N/A Fog Fog
1:19 AM 66.0 °F - 64.9 °F 96% 29.94 in 0.2 mi West 3.5 mph - N/A Fog Fog
1:53 AM 64.9 °F - 64.0 °F 97% 29.94 in 0.2 mi Calm Calm - N/A Fog Fog
2:53 AM 64.4 °F - 64.4 °F 100% 29.93 in 0.2 mi Calm Calm - N/A Fog Fog
3:51 AM 66.2 °F - 64.4 °F 94% 29.93 in 0.2 mi Calm Calm - N/A Fog Fog
3:53 AM 66.0 °F - 64.9 °F 96% 29.94 in 0.2 mi Calm Calm - N/A Fog Fog
4:13 AM 66.0 °F - 64.9 °F 96% 29.93 in 0.2 mi Calm Calm - N/A Fog Fog
4:53 AM 66.9 °F - 64.9 °F 93% 29.94 in 0.2 mi Calm Calm - N/A Fog Fog
5:53 AM 66.9 °F - 66.0 °F 97% 29.94 in 0.2 mi Calm Calm - N/A Fog Fog
6:53 AM 66.9 °F - 66.0 °F 97% 29.95 in 0.2 mi Calm Calm - N/A Fog Fog
7:13 AM 66.9 °F - 66.0 °F 97% 29.96 in 0.2 mi SSW 3.5 mph - N/A Fog Fog
7:23 AM 66.9 °F - 66.0 °F 97% 29.96 in 0.2 mi SE 3.5 mph - N/A Fog Fog
7:53 AM 66.9 °F - 66.0 °F 97% 29.97 in 0.2 mi Calm Calm - N/A Fog Fog
8:35 AM 68.0 °F - 66.9 °F 96% 29.97 in 0.2 mi South 4.6 mph - N/A Fog Fog
8:46 AM 68.0 °F - 66.9 °F 96% 29.97 in 0.2 mi Calm Calm - N/A Fog Fog
8:53 AM 68.0 °F - 66.9 °F 96% 29.97 in 0.2 mi SSW 3.5 mph - N/A Fog Fog
9:03 AM 68.0 °F - 68.0 °F 100% 29.98 in 0.5 mi Calm Calm - N/A Fog Fog
9:23 AM 69.1 °F - 68.0 °F 96% 29.98 in 1.2 mi Calm Calm - N/A   Overcast
9:31 AM 70.0 °F - 69.1 °F 97% 29.98 in 1.8 mi Calm Calm - N/A   Overcast
9:44 AM 70.0 °F - 68.0 °F 93% 29.99 in 2.0 mi Calm Calm - N/A   Overcast
9:53 AM 73.0 °F - 68.0 °F 84% 29.99 in 2.5 mi Variable 3.5 mph - N/A   Haze
10:09 AM 73.9 °F - 68.0 °F 82% 29.99 in 3.0 mi Calm Calm - N/A   Haze
10:21 AM 75.9 °F - 68.0 °F 76% 29.99 in 3.0 mi East 4.6 mph - N/A   Haze
10:31 AM 77.0 °F - 68.0 °F 74% 29.99 in 4.0 mi Variable 3.5 mph - N/A   Haze
10:53 AM 78.1 °F - 69.1 °F 74% 29.99 in 5.0 mi East 6.9 mph - N/A   Haze
11:00 AM 78.1 °F - 66.9 °F 68% 29.98 in 6.0 mi ESE 5.8 mph - N/A   Haze
11:53 AM 80.1 °F 82.3 °F 66.9 °F 64% 29.98 in 9.0 mi ESE 8.1 mph - N/A   Partly Cloudy
12:32 PM 75.9 °F - 66.9 °F 74% 29.97 in 10.0 mi SSE 9.2 mph - N/A   Mostly Cloudy
12:45 PM 78.1 °F - 68.0 °F 71% 29.96 in 10.0 mi SSE 11.5 mph - N/A   Mostly Cloudy
12:53 PM 79.0 °F - 68.0 °F 69% 29.96 in 10.0 mi SSE 11.5 mph - N/A   Mostly Cloudy
1:23 PM 77.0 °F - 66.0 °F 69% 29.95 in 9.0 mi SE 13.8 mph - N/A   Overcast
1:30 PM 78.1 °F - 64.9 °F 64% 29.95 in 10.0 mi SSE 13.8 mph - N/A   Mostly Cloudy
1:53 PM 80.1 °F 82.1 °F 66.0 °F 62% 29.94 in 10.0 mi SSE 12.7 mph - N/A   Mostly Cloudy
2:53 PM 80.1 °F 82.1 °F 66.0 °F 62% 29.92 in 10.0 mi SSE 13.8 mph - N/A   Overcast
3:53 PM 78.1 °F - 66.0 °F 66% 29.89 in 10.0 mi SE 11.5 mph - N/A   Mostly Cloudy
4:53 PM 79.0 °F - 64.9 °F 62% 29.88 in 10.0 mi South 11.5 mph - N/A   Scattered Clouds
5:53 PM 77.0 °F - 64.9 °F 66% 29.88 in 10.0 mi South 12.7 mph - N/A   Partly Cloudy
6:53 PM 73.9 °F - 64.9 °F 73% 29.87 in 10.0 mi SSE 11.5 mph - N/A   Clear
7:53 PM 70.0 °F - 64.9 °F 84% 29.87 in 10.0 mi South 8.1 mph - N/A   Clear
8:53 PM 68.0 °F - 64.9 °F 90% 29.89 in 8.0 mi South 4.6 mph - N/A   Clear
9:46 PM 68.0 °F - 64.4 °F 88% 29.90 in 8.0 mi South 5.8 mph - N/A   Mostly Cloudy
9:53 PM 68.0 °F - 64.9 °F 90% 29.90 in 8.0 mi South 5.8 mph - N/A   Mostly Cloudy
10:06 PM 68.0 °F - 64.9 °F 90% 29.90 in 8.0 mi South 6.9 mph - N/A   Scattered Clouds
10:53 PM 66.9 °F - 64.9 °F 93% 29.90 in 8.0 mi SSE 6.9 mph - N/A   Partly Cloudy
11:53 PM 66.9 °F - 64.9 °F 93% 29.89 in 7.0 mi SSE 6.9 mph - N/A   Clear